map of PEI home
PEI - Airport
Location
City:  Pereira, Risaralda, Colombia
Name:Matecaņa International Airport
ICAO:SKPE
IATA:PEI

Details
Type:Airport (Aerodrome, Airfield)
Use:International (customs port of entry)
Latitude:4°48'46"N (4.812778)
Longitude:75°44'22"W (-75.739443)
Elevation:4418 ft (1347 m)
Variation:6.35°W (WMM2015 magnetic declination)
-0.15° annual change
Runways:1
Longest:6627 × 148 ft (2020 × 45 m), paved

Time
Time Zone:UTC-5
Local Time:

Weather
METAR:SKPE 191300Z VRB02KT 3600 BCFG BKN007 SCT070 18/18 A3010

Related Locations
Nearby:
Farthest:WIPO: 12441 mi / 20021 km
Batu Raja [Gatot Subrato], LA, ID

Find:

   beyond  
but within

Other Information
Maps:
NOTAMs:
Links:
Sources:

  
  • flag of Colombia
  • flag of Risaralda
  • flag of Pereira
  

Sectional Chart

Flight Planning
at skyvector.com

Satellite Image

Google Maps Satellite view

 

Copyright © 2004-2018 Karl L. Swartz. All rights reserved.
The Great Circle Mapper name and logo are trademarks of the Great Circle Mapper.
All other trademarks mentioned herein belong to their respective owners.
Please see credits for attibutions and further copyright information.

  Follow gcmap on Facebook Follow gcmap on Twitter Follow gcmap on Google+ GCmap on LinkedIn

hCard Microformat

Geo Microformat